Home   Weather   St. Gallen   Past weeks

Flag for Switzerland Past Weather in St. Gallen, St. Gallen, Switzerland — Yesterday and Last 2 Weeks

Now
34 °F

Scattered clouds.


Feels Like: 30 °F
Forecast: 29 / 40 °F
Wind: 5 mph from West

Location: Saint Gallen-Altenrhein

Current Time: Dec 11, 2016 at 11:07:26 am

Latest Report: Dec 11, 2016 at 10:20 am


Visibility: N/A

Pressure: 30.27 "Hg (27.82 "Hg at 678m altitude)

Humidity: 100%

Dew Point: 34 °F

Location of St. GallenLocation

Past Weather in St. Gallen — Graph

°F

St. Gallen Temperature Yesterday

Maximum temperature yesterday: 36 °F (at 2:50 pm)
Minimum temperature yesterday: 28 °F (at 9:20 am)
Average temperature yesterday: 32 °F

High & Low Weather Summary for the Past Weeks

 TemperatureHumidityPressure
High48 °F (Nov 27, 1:50 pm)100% (Nov 26, 7:20 pm)30.63 "Hg (Nov 26, 7:20 pm)
Low23 °F (Nov 29, 7:20 am)56% (Nov 28, 12:50 pm)30.01 "Hg (Nov 27, 1:20 pm)
Average33 °F91%30.33 "Hg
* Reported Nov 26 9:20 am — Dec 11 9:50 am, St. Gallen, Weather by CustomWeather, © 2016

Note: Actual official high and low records may vary slightly from our data, if they occured in-between our weather recording intervals... More about our weather records

Advertising

St. Gallen Weather History for the Previous 24 Hours

Scroll right to see more
 ConditionsComfort  
Time TempWeatherWind HumidityBarometerVisibility
9:50 am
Sun, Dec 11
30 °FLight fog.5 mph100%30.24 "Hg5 mi
9:20 am28 °FChilly.5 mph100%30.27 "Hg5 mi
8:50 am28 °FChilly.8 mph100%30.27 "Hg4 mi
8:20 am27 °FIce fog.8 mph100%30.27 "Hg1 mi
7:50 am28 °FIce fog.8 mph100%30.27 "Hg1 mi
7:20 am30 °FIce fog.5 mph100%30.30 "Hg0 mi
6:50 am30 °FIce fog.3 mph100%30.27 "Hg0 mi
6:20 am30 °FIce fog.2 mph100%30.27 "Hg0 mi
5:50 am30 °FIce fog.2 mph100%30.27 "Hg0 mi
5:20 am30 °FIce fog.3 mph100%30.24 "Hg0 mi
4:50 am30 °FIce fog.2 mph100%30.24 "Hg0 mi
4:20 am30 °FIce fog.3 mph100%30.24 "Hg0 mi
3:50 am32 °FIce fog.2 mph93%30.21 "Hg0 mi
3:20 am32 °FIce fog.2 mph100%30.21 "Hg0 mi
2:50 am32 °FIce fog.3 mph93%30.24 "Hg0 mi
2:20 am32 °FIce fog.3 mph100%30.24 "Hg0 mi
1:50 am32 °FIce fog.2 mph100%30.24 "Hg0 mi
1:20 am32 °FIce fog.3 mph100%30.24 "Hg0 mi
12:50 am30 °FIce fog.1 mph100%30.24 "Hg0 mi
12:20 am32 °FIce fog.2 mph100%30.24 "Hg0 mi
11:50 pm
Sat, Dec 10
32 °FIce fog.1 mph93%30.27 "Hg0 mi
11:20 pm32 °FIce fog.2 mph100%30.27 "Hg0 mi
10:50 pm32 °FIce fog.3 mph100%30.27 "Hg0 mi
10:20 pm32 °FFog.5 mph100%30.27 "Hg0 mi
9:50 pm32 °FIce fog.5 mph100%30.27 "Hg0 mi
9:20 pm32 °FFog.2 mph100%30.27 "Hg0 mi
8:50 pm34 °FFog.2 mph100%30.30 "Hg0 mi
8:20 pm32 °FFog.3 mph100%30.30 "Hg0 mi
7:50 pm32 °FIce fog.5 mph100%30.30 "Hg0 mi
7:20 pm32 °FIce fog.5 mph100%30.30 "Hg0 mi
6:50 pm28 °FIce fog.3 mph100%30.30 "Hg0 mi
6:20 pm28 °FIce fog.2 mph100%30.30 "Hg1 mi
5:50 pm30 °FIce fog.3 mph100%30.30 "Hg1 mi
5:20 pm32 °FIce fog.2 mph100%30.33 "Hg0 mi
4:50 pm32 °FFog.2 mph93%30.33 "Hg0 mi
4:20 pm32 °FFog.2 mph100%30.33 "Hg1 mi
3:50 pm34 °FFog.2 mph93%30.33 "Hg1 mi
3:20 pm34 °FFog.5 mph100%30.33 "Hg2 mi
2:50 pm36 °FFog.2 mph100%30.33 "Hg3 mi
2:20 pm34 °FFog.2 mph100%30.33 "Hg2 mi
1:50 pm34 °FFog.3 mph100%30.36 "Hg2 mi
1:20 pm34 °FFog.2 mph100%30.36 "Hg2 mi
12:50 pm34 °FFog.5 mph93%30.36 "Hg1 mi
12:20 pm32 °FIce fog.5 mph100%30.36 "Hg1 mi
11:50 am32 °FIce fog.3 mph100%30.39 "Hg3 mi
11:20 am32 °FIce fog.2 mph100%30.39 "Hg2 mi
Weather by CustomWeather, © 2016

See weather overviewHow to use our weather pages